Location: *
(13.2257°S, 48.7193°W)
Time: 13:35:12
(UTC+00:00)

SL-16 R/B - Pass Details

Date: 13 February 2026
Orbit: 841 x 845 km, 71.0° (Epoch: 11 March)

Event Time Altitude Azimuth Distance (km) Brightness Sun altitude
Rises 08:44:34 0° 210° (SSW) 3,405 5.2 -7.5°
Reaches altitude 10° 08:47:11 10° 218° (SW) 2,465 4.4 -6.9°
Maximum altitude 08:52:19 37° 284° (WNW) 1,291 2.7 -5.7°
Drops below altitude 10° 08:57:27 10° 350° (N) 2,448 4.4 -4.5°
Sets 09:00:03 0° 358° (N) 3,377 5.2 -3.8°
